FW5165 Weather Reports


time (UTC)temp
C
wind
direction
speed
KPH
gust
KPH
rain 1hr
cm
rain 24hr
cm
rain mn
cm
humidity
%
barometer
mb
20260506151024 14 116 0.0 1.6 0.00 0.00 0.00 88 1022.1
20260506150524 14 125 0.0 1.6 0.00 0.00 0.00 89 1022.1
20260506150023 14 167 0.0 1.6 0.00 0.00 0.00 89 1022.1
20260506145524 14 132 0.0 1.6 0.00 0.00 0.00 89 1022.1
20260506145022 14 64 0.0 1.6 0.00 0.00 0.00 89 1022.1
20260506144522 13 43 0.0 3.2 0.00 0.00 0.00 89 1022.1
20260506144021 13 95 0.0 3.2 0.00 0.00 0.00 89 1022.1
20260506143521 13 113 1.6 3.2 0.00 0.00 0.00 89 1022.1
20260506143021 13 111 0.0 6.4 0.00 0.00 0.00 89 1022.0
20260506142521 13 111 1.6 6.4 0.00 0.00 0.00 89 1022.0
20260506142019 13 9 0.0 1.6 0.00 0.00 0.00 90 1021.8
20260506141520 13 349 0.0 1.6 0.00 0.00 0.00 89 1021.8
20260506141019 13 298 0.0 1.6 0.00 0.00 0.00 89 1021.8
20260506140522 13 5 0.0 1.6 0.00 0.00 0.00 89 1021.7
20260506140017 13 330 0.0 0.0 0.00 0.00 0.00 89 1021.6
20260506135517 13 332 0.0 1.6 0.00 0.00 0.00 89 1021.6
20260506135016 13 346 0.0 1.6 0.00 0.00 0.00 89 1021.6
20260506134517 13 10 0.0 1.6 0.00 0.00 0.00 89 1021.5
20260506134015 13 10 0.0 3.2 0.00 0.00 0.00 89 1021.6
20260506133519 13 10 0.0 3.2 0.00 0.00 0.00 89 1021.4
20260506133015 13 68 0.0 3.2 0.00 0.00 0.00 89 1021.4
20260506132515 13 74 0.0 3.2 0.00 0.00 0.00 89 1021.4
20260506132017 13 110 1.6 3.2 0.00 0.00 0.00 89 1021.3
20260506131518 13 161 1.6 3.2 0.00 0.00 0.00 89 1021.3
20260506131014 13 167 0.0 3.2 0.00 0.00 0.00 89 1021.3
20260506130518 13 165 0.0 6.4 0.00 0.00 0.00 89 1021.3
20260506130016 13 165 1.6 4.8 0.00 0.00 0.00 89 1021.2
20260506125513 13 167 1.6 6.4 0.00 0.00 0.00 89 1021.3
20260506125012 13 167 0.0 6.4 0.00 0.00 0.00 89 1021.3
20260506124513 13 167 1.6 8.0 0.00 0.00 0.00 89 1021.2
20260506124014 13 167 0.0 6.4 0.00 0.00 0.00 89 1021.2
20260506123512 13 167 0.0 6.4 0.00 0.00 0.00 89 1021.1
20260506123011 13 167 3.2 6.4 0.00 0.00 0.00 89 1021.1
20260506122511 13 171 0.0 0.0 0.00 0.00 0.00 89 1021.1
20260506122011 13 171 0.0 0.0 0.00 0.00 0.00 88 1021.0
20260506121510 13 171 0.0 0.0 0.00 0.00 0.00 88 1021.1
20260506121009 13 171 0.0 1.6 0.00 0.00 0.00 88 1021.1
20260506120514 13 171 0.0 3.2 0.00 0.00 0.00 88 1021.0
20260506120009 13 171 0.0 6.4 0.00 0.00 0.00 88 1021.0
20260506115509 13 171 1.6 6.4 0.00 0.03 0.00 88 1020.9
20260506115009 13 173 1.6 4.8 0.00 0.03 0.00 88 1020.9
20260506114508 13 175 3.2 6.4 0.00 0.03 0.00 88 1021.0
20260506114007 13 218 0.0 3.2 0.00 0.03 0.00 88 1021.0
20260506113507 13 218 0.0 1.6 0.00 0.03 0.00 88 1021.0
20260506113010 13 218 0.0 1.6 0.00 0.03 0.00 88 1020.9
20260506112507 13 218 0.0 0.0 0.00 0.03 0.00 88 1020.9
20260506112006 13 218 0.0 0.0 0.00 0.03 0.00 88 1020.9
20260506111505 13 218 0.0 0.0 0.00 0.03 0.00 88 1020.9
20260506111004 13 218 0.0 0.0 0.00 0.03 0.00 88 1020.8
20260506110504 13 218 0.0 0.0 0.00 0.03 0.00 87 1020.7
20260506110005 13 218 0.0 1.6 0.00 0.03 0.00 87 1020.8
20260506105505 13 218 0.0 1.6 0.00 0.03 0.00 87 1020.6
20260506105001 13 218 0.0 1.6 0.00 0.03 0.00 87 1020.5
20260506104502 13 218 0.0 3.2 0.00 0.03 0.00 87 1020.5
20260506104001 13 218 0.0 3.2 0.00 0.03 0.00 87 1020.6
20260506103502 13 218 1.6 3.2 0.00 0.03 0.00 87 1020.7
20260506103002 13 218 0.0 0.0 0.00 0.03 0.00 86 1020.6
20260506102600 13 218 0.0 0.0 0.00 0.03 0.00 86 1020.6
20260506102100 13 218 0.0 0.0 0.00 0.03 0.00 86 1020.5
20260506101600 13 218 0.0 1.6 0.00 0.03 0.00 86 1020.4
20260506101059 13 218 0.0 1.6 0.00 0.03 0.00 86 1020.4
20260506100559 13 218 0.0 3.2 0.00 0.03 0.00 86 1020.4
20260506100059 13 219 0.0 3.2 0.00 0.03 0.00 86 1020.3
20260506095559 13 219 0.0 1.6 0.00 0.03 0.00 86 1020.4
20260506095059 13 219 0.0 1.6 0.00 0.03 0.00 86 1020.3
20260506094558 13 219 0.0 6.4 0.00 0.03 0.00 86 1020.4
20260506094057 13 219 0.0 6.4 0.00 0.03 0.00 86 1020.3
20260506093557 13 223 0.0 3.2 0.00 0.03 0.00 86 1020.3
20260506093111 13 223 0.0 3.2 0.00 0.03 0.00 86 1020.3
20260506092557 14 223 0.0 3.2 0.00 0.03 0.00 86 1020.3
20260506092057 14 223 0.0 1.6 0.00 0.03 0.00 85 1020.3
20260506091557 13 223 0.0 3.2 0.00 0.03 0.00 85 1020.3
20260506091057 13 223 0.0 3.2 0.00 0.03 0.00 86 1020.4
20260506090557 13 225 0.0 1.6 0.00 0.03 0.00 85 1020.3
20260506090112 13 225 0.0 3.2 0.00 0.03 0.00 86 1020.4
20260506085556 13 225 0.0 3.2 0.00 0.03 0.00 86 1020.4
20260506085056 13 225 0.0 3.2 0.00 0.03 0.00 86 1020.4
20260506084556 13 225 0.0 3.2 0.00 0.03 0.00 86 1020.4
20260506084056 14 226 1.6 3.2 0.00 0.03 0.00 86 1020.3
20260506083555 14 246 1.6 3.2 0.00 0.03 0.00 86 1020.4
20260506083054 14 248 1.6 6.4 0.00 0.03 0.00 86 1020.3
20260506082556 14 254 1.6 6.4 0.00 0.03 0.00 86 1020.4
20260506082053 14 263 1.6 3.2 0.00 0.03 0.00 85 1020.3
20260506081553 14 263 0.0 3.2 0.00 0.03 0.00 85 1020.3
20260506081053 14 263 0.0 3.2 0.00 0.03 0.00 85 1020.3
20260506080552 14 264 0.0 1.6 0.00 0.03 0.00 85 1020.3
20260506080152 14 264 0.0 1.6 0.00 0.03 0.00 85 1020.3
20260506073057 15 264 0.0 1.6 0.00 0.05 0.00 83 1020.1
20260506072551 15 264 0.0 1.6 0.00 0.05 0.00 83 1020.0
20260506072052 15 264 0.0 1.6 0.00 0.05 0.00 84 1020.0
20260506071547 15 264 0.0 1.6 0.00 0.05 0.00 83 1020.0
20260506071046 15 264 0.0 1.6 0.00 0.05 0.00 84 1020.0
20260506070545 15 264 0.0 1.6 0.00 0.05 0.00 84 1019.9
20260506062041 15 158 1.6 3.2 0.00 0.13 0.05 80 1019.5
20260506061555 15 158 0.0 1.6 0.00 0.13 0.05 80 1019.5
20260506061041 15 158 0.0 3.2 0.00 0.13 0.05 80 1019.5
20260506060541 15 158 0.0 3.2 0.00 0.13 0.05 80 1019.5
20260506051035 15 164 0.0 1.6 0.00 0.28 0.05 81 1019.0
20260506050535 15 164 0.0 3.2 0.00 0.28 0.05 81 1019.0
20260506045033 15 165 0.0 3.2 0.00 0.76 0.05 81 1018.8
20260506044534 15 165 0.0 3.2 0.00 0.76 0.05 81 1018.8
20260506044032 15 165 0.0 3.2 0.00 0.76 0.05 81 1018.8
20260506043531 15 165 0.0 3.2 0.00 0.76 0.05 81 1018.8
20260506043033 15 165 0.0 3.2 0.00 0.76 0.05 81 1018.7
20260506042532 15 165 1.6 3.2 0.00 0.76 0.05 81 1018.7
20260506042032 15 168 0.0 3.2 0.00 0.76 0.05 81 1018.6
20260506041530 15 168 0.0 3.2 0.00 0.76 0.05 81 1018.6
20260506041028 15 168 0.0 3.2 0.00 0.76 0.05 81 1018.5
20260506040527 15 168 0.0 3.2 0.00 0.76 0.05 80 1018.4
20260506040027 15 168 0.0 6.4 0.00 0.76 0.05 81 1018.5
20260506035526 15 168 0.0 8.0 0.00 1.09 0.05 80 1018.3
20260506035026 15 168 1.6 8.0 0.00 1.09 0.05 80 1018.2
20260506034524 15 186 3.2 6.4 0.00 1.09 0.05 80 1018.0
20260506034024 15 194 1.6 1.6 0.00 1.09 0.05 79 1018.0
20260506033524 15 194 0.0 1.6 0.00 1.09 0.05 79 1018.1
20260506033024 15 194 0.0 6.4 0.00 1.09 0.05 79 1018.0
20260506032523 15 198 0.0 1.6 0.00 1.09 0.05 79 1018.0
20260506032023 15 198 0.0 1.6 0.00 1.09 0.05 79 1017.9
20260506031523 15 198 0.0 3.2 0.00 1.09 0.05 78 1017.7
20260506031022 15 198 0.0 3.2 0.00 1.09 0.05 79 1017.7
20260506030524 15 198 0.0 3.2 0.00 1.09 0.05 78 1017.7
20260506030022 16 203 0.0 3.2 0.00 1.09 0.05 78 1017.6
20260506025521 16 210 0.0 6.4 0.00 1.40 0.05 78 1017.6
20260506025020 16 134 0.0 9.7 0.00 1.40 0.05 78 1017.7
20260506024520 16 162 4.8 9.7 0.00 1.40 0.05 77 1017.6
20260506024019 16 181 6.4 9.7 0.00 1.40 0.05 77 1017.5
20260506023519 16 151 3.2 11.3 0.00 1.40 0.05 77 1017.3
20260506023018 16 146 6.4 11.3 0.00 1.40 0.05 76 1017.3
20260506022518 16 167 6.4 11.3 0.00 1.40 0.05 75 1017.3
20260506022018 16 157 6.4 12.9 0.00 1.40 0.05 75 1017.3
20260506021518 16 163 9.7 14.5 0.00 1.40 0.05 75 1017.2
20260506021018 16 150 4.8 9.7 0.00 1.40 0.05 76 1017.2
20260506020519 16 178 3.2 12.9 0.00 1.40 0.05 76 1017.1
20260506020030 16 163 4.8 12.9 0.00 1.40 0.05 76 1017.0
20260506015517 16 175 6.4 14.5 0.00 1.50 0.05 75 1017.1
20260506015021 16 139 8.0 16.1 0.00 1.50 0.05 75 1017.1
20260506014516 16 153 8.0 16.1 0.00 1.50 0.05 75 1017.0
20260506014016 16 140 6.4 16.1 0.00 1.50 0.05 75 1017.0
20260506013520 16 169 8.0 16.1 0.00 1.50 0.05 74 1017.0
20260506013019 16 156 8.0 16.1 0.00 1.50 0.05 74 1017.0
20260506012516 16 140 9.7 17.7 0.00 1.50 0.05 73 1017.0
20260506012017 16 148 11.3 17.7 0.00 1.50 0.05 74 1017.0
20260506011516 16 154 4.8 12.9 0.00 1.50 0.05 74 1017.0
20260506011016 16 140 8.0 12.9 0.00 1.50 0.05 74 1016.8
20260506010515 16 158 8.0 12.9 0.00 1.50 0.05 74 1016.8
20260506010020 16 155 8.0 11.3 0.00 1.50 0.05 74 1016.9
20260506005517 16 152 8.0 9.7 0.00 1.68 0.05 74 1016.8
20260506005013 16 142 1.6 8.0 0.00 1.68 0.05 75 1017.0
20260506004522 16 158 3.2 8.0 0.00 1.68 0.05 74 1017.0
20260506004015 16 165 1.6 8.0 0.00 1.68 0.05 74 1017.0
20260506003514 16 178 1.6 8.0 0.00 1.68 0.05 74 1016.8
20260506003013 16 163 4.8 9.7 0.00 1.68 0.05 74 1016.9
20260506002513 16 175 1.6 9.7 0.00 1.68 0.05 74 1016.9
20260506002013 16 144 0.0 9.7 0.00 1.68 0.05 74 1016.8
20260506001513 16 128 4.8 9.7 0.00 1.68 0.05 74 1016.8
20260506001012 16 114 0.0 1.6 0.00 1.68 0.05 75 1016.7
20260506000511 16 126 0.0 3.2 0.00 1.68 0.05 75 1016.6
20260506000010 16 128 0.0 3.2 0.00 1.68 0.05 75 1016.7
20260505235516 16 169 0.0 8.0 0.00 1.80 0.05 75 1016.8
20260505235009 16 194 3.2 8.0 0.00 1.80 0.05 75 1016.7
20260505234512 16 158 1.6 4.8 0.00 1.80 0.05 75 1016.8
20260505234008 16 157 1.6 6.4 0.00 1.80 0.05 74 1016.8
20260505233509 16 185 0.0 8.0 0.00 1.80 0.05 75 1016.9
20260505233008 16 175 4.8 8.0 0.00 1.80 0.05 75 1016.9
20260505232508 16 96 0.0 1.6 0.00 1.80 0.05 76 1016.8
20260505232008 16 140 0.0 8.0 0.00 1.80 0.05 76 1016.8
20260505231510 16 138 3.2 9.7 0.00 1.80 0.05 76 1016.8
20260505231007 16 211 4.8 9.7 0.00 1.80 0.05 76 1016.8
20260505230507 16 252 1.6 9.7 0.00 1.80 0.05 77 1016.9
20260505230016 16 234 3.2 9.7 0.00 1.80 0.05 76 1016.8
20260505225507 16 230 0.0 8.0 0.00 1.98 0.05 77 1016.9
20260505225007 16 247 4.8 8.0 0.00 1.98 0.05 76 1016.9
20260505224506 16 331 0.0 6.4 0.00 1.98 0.05 77 1016.9
20260505224005 16 306 0.0 6.4 0.00 1.98 0.05 78 1016.9
20260505223505 16 307 0.0 9.7 0.00 1.98 0.05 77 1016.9
20260505223007 16 275 1.6 9.7 0.00 1.98 0.05 77 1016.9
20260505222505 16 132 3.2 9.7 0.00 1.98 0.05 77 1017.0
20260505222007 16 132 0.0 6.4 0.00 1.98 0.05 77 1017.0
20260505221505 16 143 0.0 9.7 0.00 1.98 0.05 76 1017.1
20260505221005 16 183 3.2 9.7 0.00 1.98 0.05 75 1017.1
20260505220504 16 232 3.2 6.4 0.00 1.98 0.05 76 1017.1
20260505220004 16 240 0.0 9.7 0.00 1.98 0.05 76 1017.1
20260505215505 16 240 4.8 9.7 0.00 2.11 0.05 76 1017.1
20260505215003 16 203 1.6 8.0 0.00 2.11 0.05 76 1017.2
20260505214503 16 245 3.2 9.7 0.00 2.11 0.05 75 1017.2
20260505214003 16 274 4.8 9.7 0.00 2.11 0.05 75 1017.3
20260505213502 16 242 0.0 8.0 0.00 2.11 0.05 75 1017.3
20260505213002 16 220 0.0 9.7 0.00 2.11 0.05 76 1017.3
20260505212503 16 219 4.8 11.3 0.00 2.11 0.05 76 1017.3
20260505212002 16 321 1.6 8.0 0.00 2.11 0.05 76 1017.3
20260505211501 16 313 1.6 9.7 0.00 2.11 0.05 76 1017.3
20260505211002 16 232 0.0 11.3 0.00 2.11 0.05 76 1017.3
20260505210501 16 236 4.8 11.3 0.00 2.11 0.05 76 1017.2
20260505210100 16 227 0.0 9.7 0.00 2.11 0.05 78 1017.3
20260505205600 15 229 4.8 9.7 0.00 2.16 0.05 78 1017.2
20260505205059 15 225 3.2 14.5 0.00 2.16 0.05 78 1017.1
20260505204605 15 240 8.0 14.5 0.00 2.16 0.05 77 1017.2
20260505204058 15 231 3.2 12.9 0.00 2.16 0.05 77 1017.2
20260505203557 15 214 8.0 12.9 0.00 2.16 0.05 78 1017.2
20260505203058 15 229 6.4 12.9 0.00 2.16 0.05 77 1017.2
20260505202557 15 269 8.0 12.9 0.00 2.16 0.05 78 1017.2
20260505202056 15 269 3.2 12.9 0.00 2.16 0.05 78 1017.2
20260505201557 15 268 6.4 12.9 0.00 2.16 0.05 77 1017.3
20260505201056 15 275 3.2 8.0 0.00 2.16 0.05 78 1017.3
20260505200556 15 240 3.2 8.0 0.00 2.16 0.05 78 1017.2
20260505200056 15 264 3.2 8.0 0.00 2.16 0.05 77 1017.4
20260505195555 15 264 1.6 8.0 0.00 2.16 0.05 78 1017.3
20260505195055 15 282 4.8 8.0 0.00 2.16 0.05 78 1017.3
20260505194553 15 248 1.6 8.0 0.00 2.16 0.05 78 1017.4
20260505194053 15 231 4.8 8.0 0.00 2.16 0.05 78 1017.5
20260505193552 15 268 0.0 11.3 0.00 2.16 0.05 78 1017.4
20260505193051 15 248 4.8 12.9 0.00 2.16 0.05 79 1017.5
20260505192550 15 236 4.8 12.9 0.00 2.16 0.05 78 1017.4
20260505192050 15 217 4.8 16.1 0.00 2.16 0.05 81 1017.4
20260505191552 15 246 8.0 16.1 0.00 2.16 0.05 80 1017.4
20260505191051 14 223 8.0 14.5 0.00 2.16 0.05 81 1017.4
20260505190552 14 236 8.0 11.3 0.00 2.16 0.05 80 1017.4
20260505190052 14 254 4.8 14.5 0.00 2.16 0.05 81 1017.4
20260505185550 14 281 9.7 14.5 0.00 2.16 0.05 81 1017.4
20260505185049 14 239 6.4 14.5 0.00 2.16 0.05 81 1017.3
20260505184549 14 306 4.8 9.7 0.00 2.16 0.05 81 1017.3
20260505184049 14 261 3.2 11.3 0.00 2.16 0.05 82 1017.3
20260505183548 14 271 4.8 12.9 0.00 2.16 0.05 81 1017.3
20260505183048 14 266 6.4 12.9 0.00 2.16 0.05 81 1017.4
20260505182548 14 246 3.2 12.9 0.00 2.16 0.05 81 1017.3
20260505182048 14 224 6.4 12.9 0.00 2.16 0.05 81 1017.3
20260505181611 14 174 4.8 14.5 0.00 2.16 0.05 81 1017.2
20260505181049 15 182 8.0 14.5 0.00 2.16 0.05 82 1017.2
20260505180545 14 225 9.7 14.5 0.00 2.16 0.05 82 1017.2
20260505180100 13 204 0.0 12.9 0.00 2.16 0.05 83 1017.2
20260505175544 13 209 8.0 14.5 0.00 2.16 0.05 82 1017.2
20260505175043 13 215 8.0 14.5 0.00 2.16 0.05 84 1017.2
20260505174544 13 204 3.2 12.9 0.00 2.16 0.05 85 1017.2
20260505174040 13 184 6.4 12.9 0.00 2.16 0.05 85 1017.2
20260505173540 13 209 3.2 12.9 0.00 2.16 0.05 85 1017.1
20260505173039 13 238 6.4 14.5 0.00 2.16 0.05 86 1017.2
20260505172538 13 231 9.7 14.5 0.00 2.16 0.05 87 1017.2
20260505172037 12 194 6.4 12.9 0.00 2.16 0.05 87 1017.2
20260505171541 12 252 3.2 12.9 0.00 2.16 0.05 88 1017.1
20260505171036 12 215 9.7 14.5 0.00 2.16 0.05 88 1017.1
20260505170534 12 220 9.7 14.5 0.00 2.16 0.05 89 1017.1
20260505170034 12 194 8.0 14.5 0.00 2.16 0.05 88 1017.2
20260505165537 12 194 6.4 11.3 0.00 2.16 0.05 90 1017.2
20260505165134 12 181 8.0 11.3 0.00 2.16 0.05 89 1017.3
20260505164533 12 198 1.6 11.3 0.00 2.16 0.05 90 1017.1
20260505164032 12 191 6.4 11.3 0.00 2.16 0.05 90 1017.2
20260505163531 12 194 4.8 9.7 0.00 2.16 0.05 91 1017.2
20260505163030 12 188 4.8 11.3 0.00 2.16 0.05 91 1017.1
20260505162529 11 195 6.4 11.3 0.00 2.16 0.05 91 1017.2
20260505162028 11 184 6.4 11.3 0.00 2.16 0.05 92 1017.1
20260505161527 11 193 4.8 11.3 0.00 2.16 0.05 92 1017.1
20260505161026 11 190 4.8 11.3 0.00 2.16 0.05 92 1017.0
20260505160531 11 161 6.4 11.3 0.00 2.16 0.05 93 1017.1
20260505153034 11 155 6.4 12.9 0.00 2.16 0.05 94 1017.1
20260505152521 11 155 4.8 9.7 0.00 2.16 0.05 94 1017.1
20260505152018 11 157 1.6 9.7 0.00 2.16 0.05 94 1017.1
20260505151521 10 160 4.8 9.7 0.00 2.16 0.05 94 1017.1